Weather History for Bandarabbass, Iran

Change the Weather History Date:

Monday, February 18, 2013

  Actual Average Record
Temperature  
Mean Temperature 70 °F -  
Max Temperature 75 °F 80 °F - ()
Min Temperature 64 °F 61 °F - ()
Cooling Degree Days 4    
Growing Degree Days 20 (Base 50)    
Moisture  
Dew Point 64 °F    
Average Humidity 80    
Maximum Humidity 94    
Minimum Humidity 65    
Precipitation  
Precipitation 0.01 in 0.05 in - ()
Sea Level Pressure  
Sea Level Pressure 29.84 in    
Wind  
Wind Speed 4 mph ()    
Max Wind Speed 9 mph    
Max Gust Speed -    
Visibility 2.0 miles    
Events Rain    
T = Trace of Precipitation, MM = Missing Value Source: Averaged Metar Reports

Daily Weather History Graph

Daily Weather History Graph

Search for Another Location

Airport:

Trip Planner

Search our weather history database for the weather conditions in past years. The results will help you decide how hot, cold, wet, or windy it might be!

Date:

Astronomy

Feb. 18, 2013 Rise Set
Actual Time 6:18 AM IRST 5:38 PM IRST
Civil Twilight 5:55 AM IRST 6:02 PM IRST
Nautical Twilight 5:27 AM IRST 6:29 PM IRST
Astronomical Twilight 5:00 AM IRST 6:56 PM IRST
Moon 11:20 AM IRST (2/18) No Moon Set
Length of Visible Light 12h 06m
Length of Day
11h 19m
First Quarter, 55% of the Moon is Illuminated
Feb 18
First Quarter
Feb 25
Full
Mar 5
Last Quarter
Mar 11
New
Mar 19
First Quarter

Hourly Weather History & Observations

Time (IRST) Temp. Dew Point Humidity Pressure Visibility Wind Dir Wind Speed Gust Speed Precip Events Conditions
12:00 AM 69.8 °F 64.4 °F 83% 29.83 in 3.1 mi Variable 2.3 mph - N/A   Mist
12:30 AM 69.8 °F 64.4 °F 83% 29.83 in 2.5 mi NNE 6.9 mph - N/A   Scattered Clouds
1:00 AM 69.8 °F 64.4 °F 83% 29.83 in 2.5 mi NE 2.3 mph - N/A   Scattered Clouds
1:20 AM 69.8 °F 62.6 °F 78% 29.80 in 2.5 mi East 4.6 mph - N/A   Scattered Clouds
1:30 AM 69.8 °F 62.6 °F 78% 29.80 in 2.5 mi East 4.6 mph - N/A   Scattered Clouds
2:20 AM 69.8 °F 62.6 °F 78% 29.80 in 2.5 mi Variable 2.3 mph - N/A   Scattered Clouds
2:30 AM 69.8 °F 62.6 °F 78% 29.80 in 2.5 mi Variable 2.3 mph - N/A   Scattered Clouds
3:20 AM 68.0 °F 64.4 °F 88% 29.86 in 1.9 mi Calm Calm - N/A   Scattered Clouds
3:30 AM 65 °F 64 °F 94% 29.86 in 2 mi Calm Calm - -   Mist
3:30 AM 68.0 °F 64.4 °F 88% 29.86 in 1.9 mi Calm Calm - N/A   Scattered Clouds
4:20 AM 68.0 °F 64.4 °F 88% 29.83 in 1.9 mi NNW 6.9 mph - N/A   Scattered Clouds
4:30 AM 68.0 °F 64.4 °F 88% 29.83 in 1.9 mi NNW 6.9 mph - N/A   Scattered Clouds
5:20 AM 68.0 °F 64.4 °F 88% 29.83 in 1.9 mi East 4.6 mph - N/A   Scattered Clouds
5:30 AM 68.0 °F 64.4 °F 88% 29.83 in 1.9 mi East 4.6 mph - N/A   Scattered Clouds
6:00 AM 68.0 °F 64.4 °F 88% 29.86 in 1.9 mi NW 4.6 mph - N/A   Scattered Clouds
6:20 AM 68.0 °F 64.4 °F 88% 29.86 in 1.6 mi Variable 2.3 mph - N/A Rain Rain
6:30 AM 68.0 °F 64.4 °F 88% 29.86 in 1.6 mi Variable 2.3 mph - N/A Rain Rain
7:00 AM 68.0 °F 64.4 °F 88% 29.86 in 1.6 mi North 4.6 mph - N/A   Overcast
7:20 AM 68.0 °F 64.4 °F 88% 29.86 in 1.6 mi Variable 2.3 mph - N/A   Overcast
7:30 AM 68.0 °F 64.4 °F 88% 29.86 in 1.6 mi Variable 2.3 mph - N/A   Overcast
8:00 AM 68.0 °F 64.4 °F 88% 29.86 in 1.6 mi NNE 9.2 mph - N/A   Mostly Cloudy
8:20 AM 68.0 °F 64.4 °F 88% 29.86 in 1.9 mi NE 6.9 mph - N/A   Overcast
8:30 AM 68.0 °F 64.4 °F 88% 29.86 in 1.9 mi NE 6.9 mph - N/A   Overcast
9:00 AM 69.8 °F 62.6 °F 78% 29.86 in 1.9 mi ENE 9.2 mph - N/A   Overcast
9:20 AM 69.8 °F 64.4 °F 83% 29.86 in 2.5 mi NE 6.9 mph - N/A   Haze
9:30 AM 70 °F 64 °F 74% 29.89 in 2 mi NE 6.7 mph - -   Haze
9:30 AM 69.8 °F 64.4 °F 83% 29.86 in 2.5 mi NE 6.9 mph - N/A   Haze
10:00 AM 71.6 °F 64.4 °F 78% 29.89 in 2.5 mi NNE 4.6 mph - N/A   Haze
10:20 AM 71.6 °F 64.4 °F 78% 29.89 in 2.5 mi NNE 6.9 mph - N/A   Haze
10:30 AM 71.6 °F 64.4 °F 78% 29.89 in 2.5 mi NNE 6.9 mph - N/A   Haze
11:00 AM 73.4 °F 62.6 °F 69% 29.86 in 2.5 mi ENE 6.9 mph - N/A   Haze
11:20 AM 73.4 °F 62.6 °F 69% 29.86 in 2.2 mi South 4.6 mph - N/A   Haze
11:30 AM 73.4 °F 62.6 °F 69% 29.86 in 2.2 mi South 4.6 mph - N/A   Haze
12:00 PM 73.4 °F 64.4 °F 73% 29.86 in 2.2 mi South 9.2 mph - N/A   Haze
12:20 PM 73.4 °F 62.6 °F 69% 29.86 in 1.9 mi SSW 6.9 mph - N/A   Haze
12:30 PM 73.4 °F 62.6 °F 69% 29.86 in 1.9 mi SSW 6.9 mph - N/A   Haze
1:00 PM 73.4 °F 64.4 °F 73% 29.83 in 1.9 mi SSW 4.6 mph - N/A   Haze
1:20 PM 75.2 °F 64.4 °F 69% 29.83 in 1.9 mi SSW 6.9 mph - N/A   Haze
1:30 PM 75.2 °F 64.4 °F 69% 29.83 in 1.9 mi SSW 6.9 mph - N/A   Haze
2:00 PM 75.2 °F 64.4 °F 69% 29.80 in 1.9 mi WSW 4.6 mph - N/A   Haze
2:20 PM 75.2 °F 64.4 °F 69% 29.80 in 1.9 mi SSW 9.2 mph - N/A   Haze
2:30 PM 75.2 °F 64.4 °F 69% 29.80 in 1.9 mi SSW 9.2 mph - N/A   Haze
3:00 PM 75.2 °F 64.4 °F 69% 29.80 in 1.9 mi SSW 9.2 mph - N/A   Haze
3:20 PM 73.4 °F 64.4 °F 73% 29.80 in 1.6 mi South 9.2 mph - N/A   Haze
3:30 PM 74 °F 64 °F 65% 29.82 in 2 mi South 8.9 mph - -   Haze
3:30 PM 73.4 °F 64.4 °F 73% 29.80 in 1.6 mi South 9.2 mph - N/A   Haze
4:00 PM 73.4 °F 64.4 °F 73% 29.80 in 1.6 mi South 4.6 mph - N/A   Haze
4:20 PM 75.2 °F 66.2 °F 73% 29.80 in 1.6 mi SE 4.6 mph - N/A   Haze
4:30 PM 75.2 °F 66.2 °F 73% 29.80 in 1.6 mi SE 4.6 mph - N/A   Haze
5:00 PM 73.4 °F 66.2 °F 78% 29.80 in 1.6 mi Calm Calm - N/A   Haze
5:20 PM 73.4 °F 66.2 °F 78% 29.80 in 1.6 mi Calm Calm - N/A   Haze
5:30 PM 73.4 °F 66.2 °F 78% 29.80 in 1.6 mi Calm Calm - N/A   Haze
6:00 PM 73.4 °F 64.4 °F 73% 29.80 in 1.6 mi SSW 4.6 mph - N/A   Haze
6:20 PM 71.6 °F 64.4 °F 78% 29.83 in 1.9 mi Calm Calm - N/A   Haze
6:30 PM 71.6 °F 64.4 °F 78% 29.83 in 1.9 mi Calm Calm - N/A   Haze
7:00 PM 69.8 °F 62.6 °F 78% 29.83 in 1.9 mi NNE 4.6 mph - N/A   Haze
7:20 PM 68.0 °F 60.8 °F 78% 29.83 in 1.9 mi Calm Calm - N/A   Haze
7:30 PM 68.0 °F 60.8 °F 78% 29.83 in 1.9 mi Calm Calm - N/A   Haze
8:00 PM 68.0 °F 62.6 °F 83% 29.83 in 1.9 mi Calm Calm - N/A   Scattered Clouds
8:20 PM 69.8 °F 64.4 °F 83% 29.86 in 1.9 mi SW 4.6 mph - N/A   Scattered Clouds
8:30 PM 69.8 °F 64.4 °F 83% 29.86 in 1.9 mi SW 4.6 mph - N/A   Scattered Clouds
9:00 PM 69.8 °F 64.4 °F 83% 29.86 in 2.2 mi SSW 6.9 mph - N/A   Mist
9:20 PM 69.8 °F 64.4 °F 83% 29.86 in 2.2 mi SSW 4.6 mph - N/A   Mist
9:30 PM 70 °F 65 °F 78% 29.88 in 2 mi SSW 4.5 mph - -   Mist
9:30 PM 69.8 °F 64.4 °F 83% 29.86 in 2.2 mi SSW 4.6 mph - N/A   Mist
10:00 PM 66.2 °F 62.6 °F 88% 29.86 in 2.2 mi North 4.6 mph - N/A   Mist
10:20 PM 66.2 °F 62.6 °F 88% 29.86 in 2.2 mi NE 4.6 mph - N/A   Mist
10:30 PM 66.2 °F 62.6 °F 88% 29.86 in 2.2 mi NE 4.6 mph - N/A   Mist
11:00 PM 64.4 °F 60.8 °F 88% 29.86 in 2.2 mi NNE 4.6 mph - N/A   Mist
11:20 PM 64.4 °F 60.8 °F 88% 29.86 in 1.6 mi NNW 4.6 mph - N/A   Mist
11:30 PM 64.4 °F 60.8 °F 88% 29.86 in 1.6 mi NNW 4.6 mph - N/A   Mist